{"data":{"norad_id":40071,"epoch":"2026-09-20T04:14:55.811904Z","epoch_age_seconds":65098,"freshness":"FRESH","line1":"1 40071U 14037C   26263.17703486  .00000605  00000+0  68852-4 0  9995","line2":"2 40071  98.3986 230.7150 0006676 334.8570  25.2320 14.90223228660256","mean_motion":14.90223228,"eccentricity":0.0006676,"inclination_deg":98.3986,"raan_deg":230.715,"arg_perigee_deg":334.857,"mean_anomaly_deg":25.232,"bstar":6.8852e-5,"rev_number":66025,"period_min":96.629818469049,"perigee_km":592.58223295498,"apogee_km":601.89575498213,"semimajor_km":6975.3759939686,"source":"CELESTRAK","updated_at":"2026-09-20T09:00:14.015565Z"}}